Presure
150 165 142 176 173 178 184 169 177 198 170 190 220 215 217 219 217 214 202 180 197 194 197 195 194 203 211 209 202 215 211 203 207 200 194 196 193 200 194 199 201 205 206
147 169 179 182 158 163 162 186 201 188 215 215 216 220 210 196 208 192 186 182 189 194 216 212 221 225 210 222 217 221 208 209 199 211 174 201 198 204 200 198 200 220 214
183 181 164 183 188 184 202 219 195 213 214 214 208 194 211 202 201 198 190 203 216 225 215 185 217 220 205 196 216 216 223 213 224 216 200 189 206 212 213 212 204 217 215
176 182 181 188 205 217 217 223 210 217 225 212 199 197 195 195 199 230 216 236 231 225 231 226 213 201 208 214 212 220 218 216 217 224 204 212 218 224 223 216 218 221 222
179 181 202 214 218 196 196 210 207 192 192 214 163 202 200 213 259 265 207 300 253 235 255 245 251 243 238 239 252 232 238 239 231 229 231 230 224 235 223 229 233 233 226
210 221 233 207 200 212 210 208 205 206 246 196 273 252 255 242 283 218 200 206 250 293 237 290 241 195 272 236 221 229 241 251 302 298 291 289 302 260 274 286 284 283 282
200 196 203 204 194 186 208 233 176 216 186 299 258 293 295 290 257 251 242 284 296 274 262 301 280 299 294 241 250 280 286 283 268 287 276 278 278 289 292 268 268 273 288
194 203 190 184 204 176 237 182 231 253 265 265 293 302 305 294 282 296 290 284 286 286 281 267 284 269 279 280 278 276 276 273 277 279 283 284 279 281 280 280 282 278 273
136 229 193 202 185 177 229 273 202 198 223 309 280 313 316 306 297 284 274 279 280 278 279 273 273 270 282 277 274 272 272 268 268 268 269 270 271 273 278 279 275 275 272
212 197 187 186 288 182 289 267 287 320 327 320 323 314 315 302 302 281 269 276 268 273 274 274 271 273 272 270 269 274 271 266 266 265 264 265 268 269 269 268 265 267 271
203 199 240 231 217 229 266 327 320 322 322 313 325 314 306 309 297 277 279 281 279 275 272 269 280 281 280 278 277 276 276 278 277 274 272 272 272 273 280 277 275 276 273
197 267 274 259 320 342 326 322 338 321 326 313 314 312 299 306 301 303 300 287 288 288 280 269 272 278 281 284 283 283 284 284 283 284 285 286 284 283 283 283 395 461 461
255 275 289 324 342 327 324 329 326 324 320 321 317 314 315 308 306 308 312 311 309 308 298 291 284 267 268 273 282 285 281 286 401 439 497 494 469 459 447 436 432 428 424
275 265 277 338 196 331 325 330 326 322 318 317 314 315 314 313 309 311 311 311 310 311 308 303 299 299 323 356 434 428 433 438 435 493 470 448 430 415 415 415 420 425 448
201 282 343 326 329 324 323 321 319 312 310 307 305 309 310 308 305 308 309 310 318 323 328 333 396 418 417 411 409 422 420 444 465 446 431 410 401 407 419 438 449 458 448
329 135 324 322 326 321 321 317 306 305 306 307 309 314 317 320 323 321 322 327 357 409 424 424 421 425 428 427 431 414 447 435 421 409 394 394 410 432 425 413 439 423 440
345 330 338 322 322 319 318 315 312 302 303 308 317 322 325 330 334 409 417 415 416 414 408 410 416 421 475 426 396 444 410 394 389 386 389 408 428 407 402 423 396 392 389
334 326 325 323 320 317 314 314 313 319 326 318 312 208 414 427 432 424 422 418 422 434 433 438 436 446 389 416 421 393 379 378 384 395 413 428 403 402 381 380 367 361 360
316 320 324 318 315 313 314 317 321 325 422 496 485 466 450 438 432 429 431 437 456 453 469 382 381 446 428 402 379 372 382 398 409 420 426 408 393 375 372 364 352 347 347
315 319 317 313 314 314 321 320 516 560 543 519 494 473 455 442 436 437 451 453 405 376 369 443 422 400 395 376 373 386 400 418 421 413 404 393 376 365 349 349 347 340 337
317 316 312 310 313 319 325 589 562 546 525 506 491 475 463 457 463 485 465 383 368 361 418 392 392 388 372 375 384 398 425 432 403 400 395 378 365 359 354 343 343 340 333
315 310 306 314 314 331 424 444 469 488 485 481 478 477 482 491 504 423 365 366 413 394 387 378 375 378 385 396 416 424 434 410 394 393 387 373 361 372 344 345 340 336 332
310 306 313 310 327 416 397 394 409 422 430 437 446 456 467 476 377 406 411 394 386 366 382 389 401 414 426 438 446 422 418 397 393 383 379 379 340 344 335 333 333 328 329
306 311 307 318 429 401 383 374 378 389 397 404 410 412 410 402 393 385 383 375 385 404 377 392 442 442 444 431 424 423 404 389 395 372 356 339 344 336 333 333 331 328 325
310 305 323 426 419 385 372 362 361 362 364 368 370 372 372 374 375 371 382 402 367 387 409 401 441 426 381 379 385 368 353 342 343 342 331 330 327 322 321 318 316 315 312
305 333 434 405 404 378 361 358 362 362 366 371 370 369 371 356 355 380 359 379 379 381 393 427 338 333 323 319 313 311 309 305 301 297 296 296 296 296 298 298 296 293 294
Wind_Speed
64 79 63 86 87 90 93 80 87 99 81 95 93 93 91 88 86 85 83 73 80 79 79 82 78 85 87 84 80 85 84 78 79 84 86 86 84 88 85 87 88 91 92
63 86 93 94 72 75 80 99 106 96 97 102 99 99 98 84 89 77 76 76 78 85 97 93 96 94 92 94 95 97 87 87 76 87 78 93 91 95 90 89 93 102 99
95 93 74 95 101 102 108 101 99 105 106 105 97 86 99 94 95 89 80 93 106 102 102 75 102 105 89 80 97 97 102 95 102 96 83 81 97 101 103 104 97 108 105
88 99 100 104 104 106 106 106 109 110 109 106 99 89 91 92 93 110 111 111 108 109 111 99 96 83 93 97 96 107 104 102 105 109 91 97 101 107 109 109 110 112 111
97 101 109 107 102 110 112 114 109 97 92 112 71 105 103 115 109 101 93 97 111 114 110 109 111 114 115 114 109 114 113 114 116 117 117 113 110 114 110 114 115 117 115
102 97 94 109 115 112 118 115 115 112 103 103 107 98 112 115 94 111 76 94 87 90 110 91 114 78 104 112 107 107 110 108 97 99 100 101 101 108 105 101 103 104 101
108 112 113 114 110 97 121 99 82 101 81 102 114 95 93 93 90 84 92 86 87 91 96 86 91 90 89 108 103 93 92 94 97 94 94 96 96 100 100 102 101 98 98
112 111 92 79 120 86 98 74 89 106 94 107 97 95 93 93 91 89 87 87 86 86 88 90 88 89 89 88 87 88 89 90 92 90 87 87 88 90 93 93 93 94 91
62 100 87 118 72 74 109 106 89 108 122 95 95 92 88 90 92 90 88 89 89 89 90 91 90 89 90 90 89 88 88 89 89 89 90 90 90 92 94 91 89 87 86
95 121 107 97 108 77 102 101 98 92 90 92 89 92 89 92 92 93 91 90 89 90 92 93 95 93 93 94 93 92 90 90 89 90 91 91 91 91 92 91 87 87 88
106 92 113 119 107 117 95 92 90 90 88 90 85 88 91 91 94 94 94 93 93 93 93 93 95 95 95 96 97 95 94 92 91 91 91 93 93 93 96 95 93 91 90
90 112 120 105 101 97 93 91 85 87 86 88 87 88 93 92 95 95 96 95 95 95 96 94 93 94 94 94 96 96 96 95 93 92 93 94 94 96 97 97 63 43 40
108 125 119 102 98 93 91 87 84 84 85 85 85 86 86 89 91 94 93 94 95 97 98 97 96 91 91 93 96 96 93 94 76 62 37 28 32 34 36 39 40 40 39
121 110 96 98 71 91 90 87 86 86 86 86 88 88 88 87 90 91 92 93 96 97 98 98 99 99 96 88 67 66 63 59 55 29 25 27 30 36 37 38 36 36 33
85 100 96 95 91 90 89 88 86 87 89 88 90 91 90 89 91 92 92 92 93 94 93 91 73 66 64 63 60 57 53 43 28 28 26 28 32 32 32 31 25 21 19
111 53 94 93 90 91 89 85 88 90 92 95 95 95 93 93 91 90 90 89 84 70 63 61 59 57 55 52 48 46 32 27 28 28 29 30 28 23 19 17 18 14 11
89 95 90 93 92 91 90 89 87 89 95 98 98 98 96 93 93 79 73 67 63 61 60 58 54 50 43 40 40 23 24 29 29 28 28 26 14 14 12 7 8 6 4
95 94 92 93 92 92 92 92 94 94 91 90 97 49 85 78 69 66 64 60 55 53 50 47 45 38 38 29 18 22 26 27 26 26 21 12 10 7 7 5 4 3 4
96 95 94 93 93 94 95 97 97 97 88 74 68 65 64 61 60 59 56 53 46 41 36 38 36 20 17 17 20 23 23 22 20 15 10 8 7 6 6 6 5 4 4
95 94 93 93 94 96 97 96 67 54 51 52 52 51 50 52 52 51 47 38 35 36 35 21 16 17 15 17 20 19 21 16 9 8 8 7 7 8 7 7 8 6 6
92 91 93 94 96 97 97 46 44 41 38 37 37 40 43 45 44 38 29 32 34 33 15 17 17 14 15 17 17 19 13 7 8 9 11 10 9 10 9 8 9 8 8
89 90 92 94 94 93 68 62 52 43 38 35 33 32 33 33 30 20 24 27 13 16 15 16 16 16 16 16 16 8 4 10 8 7 9 8 7 9 5 6 6 5 6
88 89 91 91 91 58 59 58 52 45 39 34 29 24 21 17 14 10 7 11 13 12 14 15 16 16 14 10 7 6 11 10 9 8 5 7 4 3 3 3 4 4 5
87 88 88 90 51 50 52 51 48 42 36 30 25 20 15 11 8 8 9 10 12 15 9 8 6 3 6 9 10 9 8 7 7 6 7 5 4 2 1 1 2 3 4
85 85 85 51 44 46 46 45 42 38 34 28 23 18 15 12 11 10 11 12 8 7 5 4 6 8 9 9 10 12 12 12 10 9 7 6 4 3 2 0 2 2 4
82 79 44 48 39 40 41 40 37 33 31 27 22 19 15 11 10 10 8 8 8 9 8 8 12 12 11 11 10 9 9 8 7 6 5 4 3 3 3 3 5 5 6
Wind_Direction
285 287 284 289 288 289 291 294 298 297 294 299 291 293 291 291 291 292 295 298 299 296 300 298 293 297 292 292 294 284 285 288 284 282 287 288 288 286 286 285 284 282 281
284 287 288 287 294 295 294 297 297 297 294 296 295 293 296 301 299 302 295 292 294 297 295 295 289 283 292 282 283 280 290 288 283 280 274 282 285 283 284 284 283 276 278
285 286 297 294 295 296 296 294 295 294 295 294 294 296 297 303 302 301 293 298 296 289 295 283 292 289 293 288 287 285 281 286 280 284 281 278 284 282 280 281 282 278 279
289 291 292 293 293 292 293 292 294 294 292 294 299 299 301 302 299 293 297 288 289 291 287 285 289 288 292 287 288 285 286 284 285 281 280 285 281 277 277 281 280 279 279
290 291 292 292 294 294 296 293 294 300 302 297 286 303 299 298 287 296 299 286 283 287 280 280 277 278 280 279 279 282 280 279 282 281 279 280 280 277 278 278 276 275 277
291 293 295 289 293 291 292 295 296 296 295 305 298 301 288 289 291 295 284 296 292 285 285 283 280 285 277 282 287 283 280 281 276 275 275 275 275 276 277 275 273 271 269
289 292 291 290 293 299 292 296 293 300 297 298 293 295 292 291 288 291 296 288 288 284 284 282 284 282 280 282 283 280 281 280 280 278 278 277 277 276 276 275 274 274 274
290 289 295 300 293 295 300 306 298 296 302 294 296 295 294 291 290 290 290 289 288 287 287 285 285 285 284 283 282 282 283 283 282 283 282 279 278 277 277 276 276 276 277
303 302 299 294 306 307 292 303 311 307 297 294 296 293 292 290 289 288 289 288 288 289 288 288 288 288 285 284 285 284 284 285 285 286 285 284 283 283 281 281 280 279 277
295 286 296 308 311 312 307 300 301 298 296 294 293 291 289 288 288 289 290 289 291 289 289 288 289 288 287 286 286 285 284 284 284 284 284 283 283 282 282 282 280 279 279
293 298 303 299 309 299 300 299 298 298 296 294 294 291 290 289 287 287 287 287 286 286 286 287 286 286 286 285 285 286 286 285 284 284 284 285 285 285 284 284 283 282 280
307 316 316 312 306 303 302 300 300 298 297 295 295 292 290 290 289 288 287 287 286 285 285 287 287 286 285 285 285 286 286 286 285 285 285 285 285 284 284 284 282 281 284
314 318 315 308 304 304 302 301 300 298 297 295 294 292 292 291 290 290 289 288 287 286 285 285 285 288 290 289 287 286 287 287 290 293 291 287 285 281 281 280 283 283 282
319 316 307 308 310 306 304 303 303 303 301 300 298 296 294 293 291 291 290 289 288 287 287 287 287 288 289 290 296 296 296 296 295 294 290 286 284 281 282 283 285 285 283
315 309 308 308 306 305 304 304 304 303 301 298 296 295 294 293 292 292 292 292 291 291 291 291 294 295 294 295 295 295 294 292 291 291 290 285 285 289 290 290 291 288 279
313 298 308 308 306 305 305 305 304 302 301 300 299 298 297 296 294 294 293 293 295 297 298 297 296 295 295 295 295 294 289 288 288 291 291 292 296 297 294 292 297 287 281
309 310 308 308 307 307 307 306 304 302 303 302 302 300 299 298 297 300 299 298 299 298 298 297 298 298 296 296 295 282 281 286 293 294 291 294 288 283 286 308 284 269 239
310 310 308 308 309 308 308 307 306 305 304 301 300 302 297 297 298 297 298 299 299 298 298 298 299 298 297 292 279 283 289 291 289 286 287 269 267 274 260 251 232 208 183
312 310 309 310 310 310 310 310 309 308 303 299 297 295 294 294 294 295 297 299 299 299 298 300 300 288 279 278 286 288 288 295 291 282 245 228 224 237 221 207 199 186 185
311 311 311 312 312 311 312 312 312 310 306 302 298 293 290 289 291 294 297 297 300 302 304 297 292 291 279 286 288 295 304 293 265 231 190 186 209 210 212 200 193 198 189
311 312 313 313 314 315 316 333 329 326 323 317 309 301 295 293 293 293 289 295 302 306 300 300 300 300 296 293 299 304 292 205 208 203 184 189 203 207 205 208 205 200 198
313 313 313 315 317 318 327 339 347 347 342 336 327 319 312 307 305 294 295 299 301 305 305 305 306 301 298 298 297 286 203 174 199 176 186 201 204 215 209 222 229 231 217
313 313 316 317 318 324 327 335 344 351 355 356 355 353 350 347 310 318 319 310 308 313 307 301 300 303 303 292 256 202 173 179 175 178 184 194 142 176 166 194 223 208 208
313 315 316 318 322 323 325 333 341 348 354 359 4 10 14 17 4 346 332 331 325 313 327 329 314 331 118 123 126 137 146 137 154 121 115 114 136 154 177 211 221 225 210
315 315 317 319 320 321 325 330 336 341 347 352 358 2 3 2 357 356 342 332 6 2 14 45 104 114 82 83 91 92 93 86 85 87 76 77 71 66 65 163 241 225 214
314 316 316 317 318 319 323 327 332 338 340 341 344 347 352 10 13 5 31 31 44 52 66 94 86 81 70 63 55 53 54 49 44 36 28 13 1 343 310 285 273 266 258